Weather History for Metropolis, IL

Change the Weather History Date:

Sunday, February 5, 2012

  Actual Average (KPAH) Record (KPAH)
Temperature  
Mean Temperature 46 °F 37 °F  
Max Temperature 49 °F 46 °F 76 °F (2008)
Min Temperature 42 °F 27 °F 5 °F (1996)
Degree Days  
Heating Degree Days 20 28  
Month to date heating degree days 144  
Since 1 July heating degree days 2717  
Cooling Degree Days 0 0  
Month to date cooling degree days 0  
Year to date cooling degree days 0  
Moisture  
Dew Point 44 °F    
Average Humidity 95    
Maximum Humidity 100    
Minimum Humidity 90    
Precipitation  
Precipitation 0.00 in 0.14 in 1.61 in (1991)
Month to date precipitation 0.72  
Year to date precipitation 4.40  
Snow  
Snow 0.00 in 0.10 in 3.00 in (1984)
Month to date snowfall 0.6  
Since 1 July snowfall 5.9  
Snow Depth -    
Sea Level Pressure  
Sea Level Pressure 30.18 in    
Wind  
Wind Speed 4 mph (NNW)    
Max Wind Speed 10 mph    
Max Gust Speed -    
Visibility 9 miles    
Events Rain    
T = Trace of Precipitation, MM = Missing Value Source: NWS Daily Summary

Daily Weather History Graph

Daily Weather History Graph

Search for Another Location

Airport:

Trip Planner

Search our weather history database for the weather conditions in past years. The results will help you decide how hot, cold, wet, or windy it might be!

Date:

Astronomy

Feb. 05, 2012 Rise Set
Actual Time 6:54 AM CST 5:23 PM CST
Civil Twilight 6:27 AM CST 5:50 PM CST
Nautical Twilight 5:56 AM CST 6:21 PM CST
Astronomical Twilight 5:26 AM CST 6:52 PM CST
Moon 3:23 PM CST (2/5) 5:03 AM CST (2/5)
Length of Visible Light 11h 23m
Length of Day
10h 28m
Waxing Gibbous, 95% of the Moon is Illuminated
Feb 5
Waxing Gibbous
Feb 7
Full
Feb 14
Last Quarter
Feb 21
New
Feb 29
First Quarter

Hourly Weather History & Observations

Time (CST) Temp. Windchill Dew Point Humidity Pressure Visibility Wind Dir Wind Speed Gust Speed Precip Events Conditions
12:15 AM 49.5 °F - 47.1 °F 92% 30.08 in 10.0 mi NW 4.6 mph - N/A   Overcast
12:35 AM 49.5 °F - 46.9 °F 91% 30.08 in 10.0 mi NW 3.5 mph - N/A   Overcast
12:55 AM 49.1 °F - 46.9 °F 92% 30.08 in 10.0 mi NW 4.6 mph - N/A   Overcast
1:15 AM 49.1 °F - 46.9 °F 92% 30.08 in 10.0 mi NNW 3.5 mph - N/A   Overcast
1:35 AM 49.1 °F - 47.1 °F 93% 30.09 in 10.0 mi Calm Calm - N/A   Overcast
1:55 AM 49.1 °F - 47.3 °F 93% 30.10 in 10.0 mi Calm Calm - N/A   Overcast
2:15 AM 49.1 °F - 47.1 °F 93% 30.10 in 10.0 mi West 3.5 mph - N/A   Overcast
2:35 AM 49.1 °F - 47.1 °F 93% 30.11 in 10.0 mi Calm Calm - N/A   Overcast
2:55 AM 48.9 °F - 46.9 °F 93% 30.11 in 10.0 mi West 3.5 mph - N/A   Overcast
3:15 AM 48.7 °F - 46.6 °F 92% 30.11 in 10.0 mi Calm Calm - N/A   Overcast
3:35 AM 48.4 °F - 47.3 °F 96% 30.11 in 10.0 mi North 3.5 mph - N/A   Overcast
3:55 AM 48.2 °F - 47.3 °F 97% 30.11 in 7.0 mi Calm Calm - N/A   Overcast
4:15 AM 48.0 °F - 47.5 °F 98% 30.11 in 7.0 mi Calm Calm - N/A   Overcast
4:35 AM 47.7 °F - 47.3 °F 99% 30.11 in 5.0 mi NNW 3.5 mph - N/A   Drizzle
4:55 AM 47.3 °F - 47.3 °F 100% 30.11 in 7.0 mi WNW 3.5 mph - N/A   Overcast
5:15 AM 47.3 °F - 47.3 °F 100% 30.12 in 7.0 mi West 3.5 mph - N/A   Overcast
5:35 AM 47.3 °F - 47.3 °F 100% 30.13 in 7.0 mi Calm Calm - N/A   Overcast
5:55 AM 47.3 °F - 47.3 °F 100% 30.13 in 5.0 mi Calm Calm - N/A   Overcast
6:15 AM 46.8 °F - 46.0 °F 97% 30.13 in 10.0 mi NNW 8.1 mph - N/A   Overcast
6:35 AM 46.6 °F - 45.5 °F 96% 30.14 in 10.0 mi NNW 5.8 mph - N/A   Overcast
6:55 AM 46.2 °F 41.2 °F 44.6 °F 94% 30.14 in 10.0 mi NNW 10.4 mph - N/A   Overcast
7:15 AM 45.9 °F 41.7 °F 44.4 °F 95% 30.16 in 10.0 mi North 8.1 mph - N/A   Overcast
7:35 AM 44.8 °F 41.6 °F 44.4 °F 99% 30.17 in 7.0 mi North 5.8 mph - N/A   Overcast
7:55 AM 44.8 °F 41.0 °F 43.9 °F 97% 30.17 in 10.0 mi NNW 6.9 mph - N/A   Overcast
8:15 AM 45.0 °F 42.6 °F 43.7 °F 95% 30.18 in 10.0 mi North 4.6 mph - N/A   Overcast
8:35 AM 45.0 °F 42.6 °F 43.7 °F 95% 30.19 in 10.0 mi North 4.6 mph - N/A   Overcast
8:55 AM 44.4 °F 40.0 °F 43.7 °F 97% 30.19 in 7.0 mi North 8.1 mph - N/A   Overcast
9:15 AM 44.6 °F 40.7 °F 43.5 °F 96% 30.20 in 10.0 mi North 6.9 mph - N/A   Overcast
9:35 AM 44.6 °F 40.2 °F 43.0 °F 94% 30.20 in 10.0 mi North 8.1 mph - N/A   Overcast
9:55 AM 43.9 °F 39.3 °F 43.2 °F 97% 30.21 in 7.0 mi North 8.1 mph - N/A   Overcast
10:15 AM 43.9 °F 40.5 °F 43.3 °F 98% 30.21 in 7.0 mi North 5.8 mph - N/A   Overcast
10:35 AM 44.1 °F 40.1 °F 43.2 °F 97% 30.22 in 10.0 mi North 6.9 mph - N/A   Overcast
10:55 AM 44.1 °F 40.1 °F 43.3 °F 97% 30.23 in 7.0 mi North 6.9 mph - N/A   Overcast
11:15 AM 44.1 °F 42.5 °F 43.0 °F 96% 30.23 in 10.0 mi North 3.5 mph - N/A   Overcast
11:35 AM 44.2 °F 42.7 °F 43.2 °F 96% 30.23 in 10.0 mi North 3.5 mph - N/A   Overcast
12:15 PM 44.2 °F 39.7 °F 43.0 °F 95% 30.23 in 10.0 mi NW 8.1 mph - N/A   Overcast
12:35 PM 44.4 °F 42.9 °F 43.3 °F 96% 30.23 in 10.0 mi North 3.5 mph - N/A   Overcast
12:55 PM 44.6 °F 42.2 °F 43.0 °F 94% 30.21 in 10.0 mi North 4.6 mph - N/A   Overcast
1:15 PM 45.0 °F 41.8 °F 42.8 °F 92% 30.21 in 10.0 mi North 5.8 mph - N/A   Overcast
1:35 PM 45.0 °F 42.6 °F 43.0 °F 93% 30.21 in 10.0 mi NNW 4.6 mph - N/A   Overcast
1:55 PM 45.1 °F 40.8 °F 42.4 °F 90% 30.21 in 10.0 mi NNW 8.1 mph - N/A   Overcast
2:15 PM 45.0 °F 41.8 °F 42.3 °F 90% 30.21 in 10.0 mi North 5.8 mph - N/A   Overcast
2:35 PM 44.6 °F 42.2 °F 42.3 °F 91% 30.22 in 10.0 mi NNW 4.6 mph - N/A   Overcast
2:55 PM 44.8 °F 42.4 °F 42.4 °F 91% 30.23 in 10.0 mi NNW 4.6 mph - N/A   Overcast
3:15 PM 44.8 °F 42.4 °F 42.1 °F 90% 30.22 in 10.0 mi NNW 4.6 mph - N/A   Overcast
3:35 PM 44.6 °F 40.7 °F 41.9 °F 90% 30.23 in 10.0 mi North 6.9 mph - N/A   Overcast
3:55 PM 44.1 °F 39.0 °F 42.1 °F 93% 30.23 in 10.0 mi North 9.2 mph - N/A   Overcast
4:15 PM 43.7 °F 38.6 °F 41.9 °F 93% 30.23 in 10.0 mi NNW 9.2 mph - N/A   Overcast
4:35 PM 43.7 °F 39.7 °F 41.9 °F 93% 30.24 in 10.0 mi North 6.9 mph - N/A   Overcast
4:55 PM 43.7 °F 41.1 °F 42.1 °F 94% 30.24 in 7.0 mi North 4.6 mph - N/A   Overcast
5:15 PM 43.3 °F 39.9 °F 42.4 °F 97% 30.25 in 5.0 mi NNW 5.8 mph - N/A   Overcast
5:35 PM 43.2 °F 41.5 °F 42.8 °F 99% 30.25 in 5.0 mi North 3.5 mph - N/A   Overcast
5:55 PM 43.0 °F 41.3 °F 42.8 °F 99% 30.26 in 10.0 mi North 3.5 mph - N/A   Light Drizzle
6:15 PM 42.8 °F 40.1 °F 42.1 °F 97% 30.26 in 10.0 mi NNE 4.6 mph - N/A   Light Drizzle
6:35 PM 42.8 °F 41.1 °F 41.9 °F 97% 30.26 in 10.0 mi NNE 3.5 mph - N/A   Overcast
6:55 PM 42.8 °F 41.1 °F 41.9 °F 97% 30.26 in 10.0 mi North 3.5 mph - N/A   Overcast
7:15 PM 42.4 °F 40.7 °F 42.1 °F 99% 30.26 in 7.0 mi North 3.5 mph - N/A   Overcast
7:35 PM 42.4 °F - 41.9 °F 98% 30.26 in 7.0 mi Calm Calm - N/A Rain Rain
7:55 PM 42.4 °F - 41.2 °F 95% 30.26 in 10.0 mi Calm Calm - N/A   Overcast
8:15 PM 42.4 °F - 40.6 °F 93% 30.26 in 10.0 mi Calm Calm - N/A   Drizzle
8:35 PM 42.3 °F - 41.0 °F 95% 30.26 in 10.0 mi Calm Calm - N/A   Overcast
8:55 PM 41.9 °F - 41.0 °F 97% 30.26 in 10.0 mi Calm Calm - N/A   Overcast
9:15 PM 41.9 °F - 41.5 °F 99% 30.26 in 7.0 mi Calm Calm - N/A   Overcast
9:35 PM 41.9 °F 40.0 °F 41.9 °F 100% 30.26 in 7.0 mi NW 3.5 mph - N/A   Overcast
9:55 PM 41.9 °F 38.2 °F 41.9 °F 100% 30.26 in 5.0 mi NW 5.8 mph - N/A   Overcast
10:15 PM 41.9 °F 38.2 °F 41.9 °F 100% 30.26 in 5.0 mi NW 5.8 mph - N/A   Overcast
10:35 PM 41.9 °F 37.5 °F 41.9 °F 100% 30.26 in 5.0 mi NW 6.9 mph - N/A   Overcast
10:55 PM 41.9 °F 39.0 °F 41.9 °F 100% 30.26 in 5.0 mi NW 4.6 mph - N/A   Overcast
11:15 PM 41.9 °F 39.0 °F 41.9 °F 100% 30.26 in 5.0 mi NW 4.6 mph - N/A   Overcast
11:35 PM 41.9 °F 40.0 °F 41.9 °F 100% 30.26 in 5.0 mi NW 3.5 mph - N/A   Overcast
11:55 PM 41.5 °F 37.8 °F 41.5 °F 100% 30.26 in 5.0 mi NW 5.8 mph - N/A   Overcast